Showing default

GSAT 18, 41793

Orbit data source: Space-Track

GSAT 18, 41793 is a payload satellite owned by ISRO (IN) in GEO that was launched on Wed, 05 Oct 2016 UTC via an ARIANE 5ECA launch vehicle from the French Guiana (FRGUI). Payload-class satellites include a variety of spacecraft equipped with specific instruments for various scientific and technological missions. These include communications satellites like Starlink; space stations such as the ISS; scientific satellites like the Hubble; Earth observation satellites from companies like Planet Labs, Umbra, and HawkEye 360; GPS; miniature CubeSats for education and research; and military/defense satellites.

Not visible in the next 10 days
Identifier
41793, 2016-060A
Orbit
GEO
Last TLE update
18 hours ago
Origin
Manufacturer
ISRO SAC/Banga
Mission
Operational Civil Communications
Bus & Motor
I3K, ISRO LAM
Mass
3,404 kg wet, ~1,200 kg dry
Launch date (UTC)
2016-10-05 (9 years ago)
Launch vehicle
ARIANE 5ECA
Launch site
French Guiana (FRGUI)
Object type
Payload
Rocket body
Debris
Shape & HBR
Box + 2 Pan, 15.5 m
Radar Cross Section
13.026 m²

Expand to show TLE details & history

TLE from 18 hours ago
0 GSAT 18
1 41793U 16060A   25181.65393748 -.00000077  00000-0  00000-0 0  9994
2 41793   0.0240 257.5270 0004652 169.6519 161.1604  1.00271224 32007
Epoch: 2025-06-30T15:41Z
TLE epoch observation values (Epoch: 2025-06-30T15:41:40.198Z)
Latitude
-0.01203°
Longitude
73.99312°
Altitude
35,804.818 km
Speed
3.073 km/s
True Right ascension
15h 13m 29s
True Declination
0° 00' 43"
Sunlit
Object was in daylight at epoch
Visualization orbit readout
Latitude
0.00573°
Longitude
-21.50446°
Altitude
35,778.075 km
Speed
3.075 km/s
Apparent Right ascension
08h 51m 51s
Apparent Declination
-4° 56' 22"
Sunlit
Object is in daylight
Visualization observer readout
Local Sidereal Time
20:54:56
Azimuth
1.34° NNE
Elevation
-55.016°
Doppler factor
1
Orbital elements
Apogee altitude
35,807.438 km
Perigee altitude
35,768.207 km
Semi-major axis
42,165.96 km
Eccentricity
0.00047
Inclination
0.024°
RAAN
257.527°
Arg. of periapsis
169.6519°
True anomaly
Unknown
Mean anomaly
161.1604°
Eccentric anomaly
Unknown
Mean motion
0.25067 °/min
Orbital period
1,436.16 mins
BSTAR
0
Loading historical data...
41793 neighbors
Loading maneuver chart data...
Loading SW <> Apogee altitude chart data...
Loading historical data...
Loading historical data...
Loading historical data...
Loading historical data...
Loading historical data...
Loading historical data...
Loading historical data...
Other satellites on launch #60 in the year 2016 (2016-10-05 UTC)

GSAT 18 Visibility

Observer location: undefined°, undefined°

GSAT 18 is likely not visible in the next few days
Span
Click to sort rows by Start time (UTC) header in descending order
Start Az.
Max El. time (UTC)
Max El. Az.
Max El.
End time (UTC)
End Az.
|